Location: Wildlife_Club
(35.6000°N, 81.4330°W)
Time: 16:28:21
(UTC-04:00)

A-11 Canister half - Pass Details

Date: 03 July 2019
Orbit: 1514 x 1685 km, 47.2° (Epoch: 18 July)

Event Time Altitude Azimuth Distance (km) Brightness Sun altitude
Rises 13:21:54 0° 298° (WNW) 4,894 11.6 77.2°
Reaches altitude 10° 13:25:15 10° 304° (WNW) 3,886 11.2 77.3°
Maximum altitude 13:34:51 52° 19° (NNE) 1,933 10.3 77.3°
Drops below altitude 10° 13:44:05 10° 94° (E) 3,748 11.2 77.0°
Sets 13:47:15 0° 99° (E) 4,710 11.5 76.8°
